Content
SEND FEEDBACK

Daily
Averages
Monthly
Summary
United States of America

ALBANY, NEW YORK


Home > North America > United States > New York
Elevation: 275 feet     Latitude: 42 45N     Longitude: 073 48W

WEATHER
 
SELECT A DAY
Number of Records: 210,877;   Date Range: 1/1/95 - 12/18/14
 
SHARE

PRINT THIS DATA

[ ← Previous Day ]
WEATHER ALMANAC - JANUARY 21, 2013
[ Next Day → ]
[ °C ]   °F
Weather ElementAverageHighLow
Temperature21.5 °F25 °F (1:51 pm)17.1 °F (7:51 am)
Dewpoint11.4 °F17.1 °F (7:51 pm)7 °F (11:51 am)
Humidity65.8 %82 % (8:51 pm)50 % (11:51 am)
Barometer29.98 in30.09 in (5:51 am)29.82 in (11:51 pm)
Wind Speed4.5 mph11.5 mph (9:51 pm)
Weather ElementAverage
Visibility9.7 mi
Wind DirectionSE (140 °)

Weather ElementTotal
Precipitation---
Heating Degree Days44 (Base 65)
Averaged from 23 records on January 21, 2013
WEATHER CONDITIONS BREAKOUT
WIND DIRECTION BREAKOUT
WEATHER BY HOUR - JANUARY 21, 2013
[ °C ]   °F
Local TimeTemperatureDewpointHumidityBarometerVisibilityWind DirectionWind SpeedGust SpeedPrecipitationEventsConditions
1:51 AM19.9 °F10.9 °F68 %30.06 in10.0 miNW (320°)3.5 mphOvercast
2:51 AM19.0 °F10.0 °F68 %30.07 in10.0 miCalmMostly Cloudy
3:51 AM19.0 °F9.0 °F65 %30.06 in10.0 miCalmMostly Cloudy
4:51 AM19.0 °F10.0 °F68 %30.08 in10.0 miWSW (240°)4.6 mph0.00 inSnowLight Snow
5:51 AM19.0 °F9.0 °F65 %30.09 in9.0 miWSW (250°)5.8 mph0.00 inSnowLight Snow
6:51 AM18.0 °F8.1 °F65 %30.08 in10.0 miCalm0.00 inMostly Cloudy
7:51 AM17.1 °F8.1 °F68 %30.08 in10.0 miCalmMostly Cloudy
8:51 AM19.0 °F10.9 °F71 %30.09 in10.0 miCalmMostly Cloudy
9:51 AM19.9 °F10.0 °F65 %30.07 in10.0 miCalmMostly Cloudy
10:51 AM21.0 °F8.1 °F57 %30.06 in10.0 miCalmMostly Cloudy
11:51 AM23.0 °F7.0 °F50 %30.01 in10.0 miSouth (180°)3.5 mphOvercast
12:51 PM24.1 °F9.0 °F53 %29.97 in10.0 miSE (140°)6.9 mphOvercast
1:51 PM25.0 °F9.0 °F51 %29.95 in10.0 miSSE (150°)8.1 mph0.00 inOvercast
2:51 PM25.0 °F9.0 °F51 %29.92 in10.0 miSSE (160°)10.4 mphOvercast
3:51 PM24.1 °F12.0 °F60 %29.91 in10.0 miSouth (170°)5.8 mphOvercast
4:51 PM25.0 °F12.0 °F58 %29.89 in9.0 miSE (130°)5.8 mph0.00 inOvercast
5:51 PM24.1 °F14.0 °F65 %29.89 in10.0 miSSE (150°)8.1 mph0.00 inSnowLight Snow
6:51 PM24.1 °F16.0 °F71 %29.90 in9.0 miSouth (180°)5.8 mph0.00 inSnowLight Snow
7:51 PM24.1 °F17.1 °F75 %29.88 in10.0 miSSE (160°)4.6 mph0.00 inMostly Cloudy
8:51 PM21.9 °F17.1 °F82 %29.87 in10.0 miSouth (180°)5.8 mphScattered Clouds
9:51 PM23.0 °F17.1 °F78 %29.85 in7.0 miSW (230°)11.5 mphScattered Clouds
10:51 PM21.0 °F15.1 °F78 %29.83 in10.0 miWest (280°)8.1 mphMostly Cloudy
11:51 PM19.0 °F14.0 °F81 %29.82 in10.0 miWNW (300°)4.6 mph0.00 inSnowLight Snow
Hourly data recorded from KALB, located miles away from Albany, New York







STORIES FROM OUR PARTNERS